Location: Sternwarte Stuttgart
(48.7670°N, 9.1830°E)
Time: 12:19:09
(UTC+02:00)

Daily predictions for brighter satellites

Satellite Brightness Start Highest point End
(mag) Time Altitude Azimuth Time Altitude Azimuth Time Altitude Azimuth
Meteor 2-21 4.5 20:40:45 10° S 20:46:56 76° E 20:53:06 10° NNE
Cosmos 1943 Rocket 3.4 20:42:09 10° SW 20:47:34 48° NW 20:53:06 10° NNE
Cosmos 2082 3.9 20:44:28 10° NNW 20:50:03 60° ENE 20:55:37 10° SE
FENGYUN 3A 3.7 20:44:44 10° SSE 20:50:06 89° WSW 20:55:30 10° NNW
NOSS 3-4 (A) 3.9 20:44:47 10° NW 20:51:44 86° SW 20:59:07 10° SE
NOSS 3-4 (C) 3.9 20:44:54 10° NW 20:51:51 86° SW 20:59:15 10° SE
Cosmos 1346 Rocket 2.8 20:48:58 10° N 20:52:53 63° ENE 20:56:48 10° SSE
Cosmos 2297 Rocket 2.6 20:48:00 10° NNW 20:53:31 51° NE 20:59:02 10° SE
Cosmos 1536 3.0 20:51:26 10° SSW 20:55:25 78° W 20:59:28 10° N
RESURS DK-1 4.1 20:52:54 10° N 20:55:57 19° NE 20:58:58 10° E
Cosmos 1777 Rocket 4.4 20:51:29 10° NNW 20:56:44 70° WSW 21:01:57 10° SSE
Meteor 1-29 4.4 20:54:45 10° N 20:58:04 44° WNW 21:01:22 10° SW
Meteor 2-15 4.5 20:51:57 10° N 20:58:04 84° E 21:04:07 10° S
Cosmos 1633 3.2 20:57:16 10° SSW 21:00:53 62° W 21:04:32 10° N
Meteor 1-11 Rocket 4.3 20:55:22 10° SSW 21:00:54 63° WNW 21:06:25 10° N
ALOS 2.7 20:56:21 10° S 21:01:00 68° WSW 21:05:41 10° NNW
YAOGAN 11 4.4 20:57:53 10° SSE 21:02:17 53° ENE 21:06:39 10° N
Meteor 2-15 Rocket 4.4 20:56:41 10° N 21:02:48 79° E 21:08:52 10° SSE
Meteor 2-14 Rocket 4.4 21:00:08 10° S 21:06:17 77° E 21:12:27 10° NNE
Helios 1B rocket 4.4 21:05:47 10° N 21:09:35 35° WNW 21:13:20 10° SW
Lacrosse 5 2.4 21:05:01 10° NW 21:09:58 51° NNE 21:14:52 10° E
Cosmos 2208 Rocket 4.2 21:05:30 10° S 21:10:39 53° ESE 21:15:54 10° NNE
Cosmos 2298 Rocket 4.5 21:08:49 10° NNW 21:13:57 47° ENE 21:18:48 11° SE
Cosmos 1500 4.4 21:14:36 10° SE 21:17:38 24° E 21:20:42 10° NE
SPOT 5 3.6 21:15:30 11° SE 21:19:59 37° ENE 21:24:26 10° N
Cosmos 1934 Rocket 4.1 21:16:06 10° S 21:22:15 86° W 21:28:32 10° N
H-2A R/B 2.5 21:20:49 12° SE 21:24:18 42° ENE 21:28:13 10° N
Cosmos 1626 Rocket 3.5 21:20:20 10° N 21:24:46 72° ENE 21:29:09 10° SSE
Cosmos 1570 Rocket 4.0 21:24:11 10° SSW 21:29:29 80° ESE 21:34:47 10° NNE
Meteor 1-12 Rocket 4.3 21:24:15 10° S 21:29:52 62° E 21:35:38 10° NNE
Cosmos 1340 4.1 21:27:10 10° NNE 21:30:11 22° ENE 21:31:55 16° ESE
H-2A R/B 3.8 21:27:38 10° E 21:30:25 16° NE 21:33:20 10° NNE
Cosmos 1602 Rocket 3.6 21:28:06 10° N 21:32:37 85° E 21:37:04 10° S
Cosmos 1455 Rocket 3.3 21:28:37 10° SSW 21:32:56 74° W 21:37:19 10° N
Cosmos 1515 3.7 21:31:48 10° N 21:35:39 67° E 21:38:57 14° SSE
Envisat 3.0 21:30:39 10° SSE 21:35:42 75° ENE 21:40:48 10° N
Cosmos 1937 Rocket 3.9 21:31:27 10° NNW 21:36:33 48° ENE 21:40:17 18° SE
Cosmos 2278 3.7 21:30:58 10° SSW 21:36:36 69° ESE 21:42:17 10° NNE
Cosmos 1697 Rocket 3.5 21:32:56 10° SSE 21:37:41 29° ESE 21:42:28 10° NE
Cosmos 1975 2.8 21:35:02 10° S 21:39:05 66° E 21:43:11 10° NNE
Cosmos 2150 Rocket 4.0 21:36:15 10° NNW 21:41:24 66° ENE 21:45:16 18° SE
Cosmos 1461 3.8 21:40:33 10° NW 21:44:25 41° WSW 21:47:44 13° S
Cosmos 1743 3.7 21:45:56 23° SE 21:47:22 29° E 21:50:48 10° NNE
Lacrosse 5 rocket 1.7 21:44:45 10° WNW 21:48:23 47° SW 21:50:26 22° SSE
SPOT 1/Viking Rocket 4.2 21:45:30 19° SE 21:48:45 41° ENE 21:53:37 10° N
Cosmos 2369 3.6 21:43:45 10° SSW 21:49:24 76° ESE 21:55:08 10° NNE
NOSS 2-1 (D) 4.0 21:45:42 10° SW 21:49:40 63° NW 21:54:27 10° NE
NOSS 2-1 (C) 4.0 21:46:43 10° SW 21:50:41 64° NW 21:55:28 10° NE
ASTEX 1 4.0 21:47:28 10° NNE 21:52:10 39° E 21:54:57 21° SE
Iridium 4 Rocket 3.7 21:48:53 10° N 21:54:14 73° W 21:59:05 10° S
Cosmos 990 Rocket 4.4 21:49:23 10° NNW 21:54:33 50° ENE 21:57:32 23° SE
YAOGAN 6 2.8 21:54:15 27° SE 21:55:57 52° ENE 21:59:35 10° N
Cosmos 2058 Rocket 4.4 21:56:41 21° E 21:57:16 22° E 22:00:43 10° NE
BREEZE-M DEB (TANK) 3.8 21:54:57 10° WNW 21:58:27 78° SSW 22:05:49 19° ESE
Cosmos 1980 Rocket 3.1 21:57:29 23° SE 21:59:15 26° ESE 22:03:54 10° NE
Cosmos 1842 4.3 21:56:54 10° NNE 22:00:20 28° ENE 22:01:12 25° E
Cosmos 2173 Rocket 4.1 21:55:56 10° S 22:02:09 59° E 22:08:21 10° NNE
CZ-4B R/B 4.3 21:59:28 10° NE 22:03:31 27° E 22:04:18 26° ESE
Meteor 1-21 4.4 21:58:16 10° N 22:03:58 59° ENE 22:07:27 24° SSE
SL-08 RB Rocket 4.4 22:02:37 26° ESE 22:04:37 40° ENE 22:08:57 10° N
Cosmos 2084 3.4 22:01:00 10° NW 22:05:01 75° SW 22:06:59 30° SSE
Terra 3.2 22:04:41 20° E 22:06:19 24° ENE 22:10:04 10° N
ARGOS 3.4 22:03:26 25° SE 22:06:25 53° ENE 22:11:40 10° N
NOSS 2-1 (E) 4.4 22:02:45 10° WSW 22:06:45 52° NW 22:11:39 10° NE
Cosmos 2061 Rocket 4.0 22:01:10 10° S 22:07:23 63° E 22:13:34 10° NNE
Cosmos 1939 Rocket 3.9 22:04:44 10° S 22:08:42 46° W 22:12:44 10° NNW
ATLAS CENTAUR R/B 4.1 22:04:50 10° W 22:09:02 26° NNW 22:13:05 10° NNE
Tiangong 1 2.4 22:06:42 10° WSW 22:08:53 25° SSW 22:08:53 25° SSW
Cosmos 1898 Rocket 3.7 22:04:46 10° NNW 22:10:05 73° WSW 22:13:40 21° S
Cosmos 2100 Rocket 3.9 22:04:11 10° S 22:10:26 72° E 22:16:40 10° NNE
Cosmos 1606 Rocket 4.0 22:09:50 32° SE 22:11:14 42° E 22:15:26 10° NNE
ERS-1 Rocket 4.1 22:08:30 10° SSW 22:13:14 41° W 22:18:00 10° NNW
SL-19 R/B 4.5 22:08:21 10° NNE 22:13:43 45° E 22:16:24 26° SSE
SL-24 R/B - RUBIN 2 4.4 22:09:37 10° SSW 22:15:27 59° ESE 22:21:55 10° NE
Cosmos 1125 Rocket 4.4 22:11:21 10° N 22:16:07 35° ENE 22:18:07 26° E
PSLV R/B 3.0 22:17:35 57° SSE 22:18:08 89° W 22:21:11 10° NNW
Cosmos 2227 Rocket 3.8 22:16:35 10° NW 22:21:24 29° WSW 22:26:11 10° SSW
CZ-4 SHROUD 3.0 22:21:02 64° SSE 22:21:27 88° ENE 22:24:33 10° NNW
BREEZE-M TANK 3.8 22:13:25 10° WNW 22:22:08 36° SW 22:23:39 27° S
USA 215 3.2 22:19:59 27° ESE 22:23:53 89° SSW 22:30:29 10° NW
Cosmos 2263 Rocket 3.6 22:20:47 10° NNW 22:25:26 26° NE 22:27:57 19° E
Cosmos 1763 Rocket 3.9 22:25:00 35° ESE 22:25:46 37° ESE 22:30:26 10° NE
MetOp-B 4.3 22:24:43 22° S 22:28:14 71° WSW 22:33:36 10° NNW
Cosmos 2322 Rocket 3.8 22:31:28 17° E 22:31:28 17° E 22:33:46 10° ENE
RESURS DK-1 2.6 22:30:18 10° NW 22:34:25 64° WSW 22:35:34 43° S
Cosmos 468 Rocket 3.9 22:30:46 10° SSW 22:35:54 88° ESE 22:41:04 10° NNE
Cosmos 1726 Rocket 3.5 22:34:58 47° SSE 22:35:59 64° E 22:40:21 10° NNE
Cosmos 2297 Rocket 3.7 22:32:28 10° NW 22:37:20 30° WSW 22:41:40 12° SSW
Cosmos 2227 4.2 22:32:15 10° NNW 22:38:04 83° ENE 22:40:19 39° SSE
Meteor 2-9 Rocket 4.3 22:37:25 39° SE 22:38:57 50° E 22:44:11 10° NNE
Cosmos 1656 3.7 22:33:54 10° SSW 22:39:32 79° WNW 22:45:08 10° NNE
Cosmos 1666 2.9 22:42:45 52° ENE 22:42:45 52° ENE 22:46:07 10° NNE
Cosmos 1814 Rocket 3.9 22:37:39 12° SSW 22:42:40 86° ESE 22:48:01 10° NNE
Cosmos 1825 Rocket 4.2 22:40:30 10° NNW 22:44:50 51° W 22:46:51 28° SSW
CZ-4C R/B 3.8 22:44:24 50° ESE 22:45:05 56° ENE 22:49:27 10° N
Cosmos 841 Rocket 3.7 22:44:31 45° SE 22:45:14 49° ESE 22:50:16 10° NNE
Cosmos 1725 Rocket 4.0 22:43:38 35° SSE 22:46:13 62° E 22:52:23 10° NNE
Cosmos 1459 Rocket 4.3 22:45:55 10° SSW 22:51:54 63° WNW 22:57:59 10° N
Cosmos 1953 Rocket 4.0 22:48:36 10° NNW 22:52:58 57° W 22:54:26 38° SSW
Lacrosse 5 2.3 22:48:07 10° WNW 22:53:01 50° SW 22:54:03 42° S
SPOT 5 4.3 22:54:45 17° SSW 22:58:04 33° W 23:02:29 10° NNW
H-2A R/B 4.1 22:57:58 12° SW 23:00:31 21° W 23:03:40 10° NW
GP-B 3.8 22:58:16 10° NNE 23:01:59 38° ENE 23:01:59 38° ENE
Cosmos 405 Rocket 3.3 23:00:23 10° N 23:03:29 45° NE 23:03:29 45° NE
Cosmos 1340 4.1 23:02:35 10° NNW 23:06:00 32° W 23:06:48 29° WSW
H-2A R/B 1.9 23:08:17 60° S 23:09:13 88° WSW 23:14:12 10° NNW
GEOS 3 Rocket 3.4 23:05:16 10° NE 23:10:25 73° SE 23:12:07 42° SSW
Cosmos 1758 Rocket 4.5 23:08:06 10° NNW 23:12:15 42° W 23:13:18 35° SW
Cosmos 2233 Rocket 3.9 23:14:15 52° SE 23:15:32 65° E 23:21:42 10° NNE
Cosmos 2098 Rocket 4.2 23:11:58 26° SSW 23:16:08 76° W 23:22:04 10° N
Cosmos 372 Rocket 4.0 23:11:42 10° NNW 23:16:49 64° ENE 23:17:17 60° E
Meteor 2-17 Rocket 4.3 23:19:54 56° SSE 23:21:08 73° E 23:27:11 10° NNE
Cosmos 1697 Rocket 3.4 23:15:51 10° SW 23:21:22 54° NW 23:26:56 10° NNE
BREEZE-M DEB (TANK) 3.5 23:14:58 10° WSW 23:22:03 47° SSW 23:22:03 47° SSW
SL-16 R/B 2.8 23:24:28 41° E 23:24:28 41° E 23:28:56 10° NE
Cosmos 2228 3.1 23:25:38 73° WNW 23:25:38 73° WNW 23:29:47 10° N
DELTA 2 DEB (DPAF) 4.4 23:25:28 58° WSW 23:25:43 59° WSW 23:30:10 10° NNW
Meteor 2-5 Rocket 3.8 23:20:16 10° N 23:26:14 70° ENE 23:27:05 61° SE
CZ-4 R/B 4.0 23:23:24 10° N 23:28:06 67° WNW 23:29:01 53° SW
Landsat 7 4.3 23:27:43 47° SW 23:28:22 51° W 23:33:02 10° NNW
Meteor 1-15 Rocket 4.4 23:28:16 43° SSW 23:30:20 75° WNW 23:36:14 10° N
IGS 5A 3.8 23:33:15 62° WNW 23:33:15 62° WNW 23:37:00 10° NNW
Cosmos 2058 Rocket 4.1 23:33:57 38° WSW 23:34:59 44° WNW 23:39:20 10° N
Cosmos 1844 Rocket 4.3 23:34:50 10° N 23:39:21 24° NE 23:41:03 21° ENE
CZ-4B R/B 4.4 23:37:54 10° N 23:42:22 41° WNW 23:44:14 28° WSW
Cosmos 1980 Rocket 2.7 23:39:09 21° SW 23:42:52 58° WNW 23:48:31 10° NNE
Cosmos 2360 Rocket 3.8 23:45:38 22° ENE 23:45:38 22° ENE 23:48:16 10° NE
Terra 2.3 23:43:35 51° WSW 23:43:45 51° W 23:48:25 10° NNW
Cosmos 1707 3.9 23:49:30 10° N 23:52:09 41° NNW 23:52:09 41° NNW
